When you browse on this site, cookies collect data to enhance your experience and personalize the content and advertising you see.
Visit our Privacy Policy to learn more. By continuing to use the site, you agree to this use of cookies and data.
  • In Denmark
  • List of Countries
  • For 7 days
  • Water Temperature
  • Satellite Maps
  • Weather Map
  • Weather Widgets
  • user-avatar
    Login

    Hourly Weather Juraszowa

    Today, 19 November, Monday

    Time Temperature Precipitation Wind Pressure Humidity
    00:00 -2°C° 0 mm 1 mps 728 mmHg 66%
    01:00 -2°C° 0 mm 1 mps 727 mmHg 65%
    02:00 -2°C° 0 mm 1 mps 727 mmHg 66%
    03:00 -2°C° 0 mm 1 mps 727 mmHg 68%
    04:00 -3°C° 0 mm 1 mps 727 mmHg 70%
    05:00 -2°C° 0 mm 1 mps 727 mmHg 71%
    06:00 -4°C° 0 mm 2 mps 726 mmHg 72%
    07:00 -4°C° 0 mm 2 mps 726 mmHg 73%
    08:00 -3°C° 0 mm 2 mps 727 mmHg 72%
    09:00 -2°C° 0 mm 2 mps 727 mmHg 72%
    10:00 -1°C° 0 mm 3 mps 727 mmHg 71%
    11:00 -1°C° 0 mm 3 mps 727 mmHg 71%
    12:00 0°C° 0 mm 3 mps 727 mmHg 71%
    13:00 0°C° 0 mm 3 mps 727 mmHg 71%
    14:00 0°C° 0 mm 3 mps 727 mmHg 74%
    15:00 -1°C° 0 mm 3 mps 727 mmHg 78%
    16:00 -1°C° 0 mm 3 mps 727 mmHg 81%
    17:00 -1°C° 0 mm 2 mps 727 mmHg 83%
    18:00 -1°C° 0 mm 2 mps 728 mmHg 84%
    19:00 -2°C° 0 mm 2 mps 728 mmHg 86%
    20:00 -2°C° 0 mm 2 mps 728 mmHg 87%
    21:00 -2°C° 0 mm 2 mps 728 mmHg 88%
    22:00 -2°C° 0 mm 2 mps 729 mmHg 89%
    23:00 -2°C° 0 mm 2 mps 728 mmHg 89%

    Tomorrow, 20 November, Tuesday

    Time Temperature Precipitation Wind Pressure Humidity
    00:00 -3°C° 0 mm 2 mps 728 mmHg 90%
    01:00 -3°C° 0 mm 2 mps 728 mmHg 91%
    02:00 -3°C° 0 mm 2 mps 728 mmHg 92%
    03:00 -3°C° 0 mm 2 mps 728 mmHg 92%
    04:00 -3°C° 0 mm 2 mps 727 mmHg 93%
    05:00 -3°C° 0 mm 2 mps 727 mmHg 92%
    06:00 -3°C° 0 mm 2 mps 727 mmHg 92%
    07:00 -3°C° 0 mm 2 mps 727 mmHg 92%
    08:00 -2°C° 0 mm 3 mps 727 mmHg 85%
    09:00 0°C° 0 mm 3 mps 727 mmHg 77%
    10:00 +1°C° 0 mm 3 mps 726 mmHg 70%
    11:00 +2°C° 0 mm 3 mps 726 mmHg 68%
    12:00 +3°C° 0 mm 4 mps 726 mmHg 65%
    13:00 +4°C° 0 mm 4 mps 725 mmHg 63%
    14:00 +3°C° 0.1 mm 3 mps 725 mmHg 68%
    15:00 +2°C° 0.1 mm 3 mps 725 mmHg 73%
    16:00 +1°C° 0.1 mm 3 mps 725 mmHg 78%
    17:00 +1°C° 0.4 mm 3 mps 725 mmHg 80%
    18:00 +1°C° 0.4 mm 3 mps 725 mmHg 83%
    19:00 +1°C° 0.4 mm 3 mps 725 mmHg 85%
    20:00 +2°C° 0.6 mm 2 mps 725 mmHg 86%
    21:00 +2°C° 0.6 mm 2 mps 725 mmHg 87%
    22:00 +2°C° 0.6 mm 2 mps 725 mmHg 88%
    23:00 +2°C° 0.5 mm 2 mps 725 mmHg 89%

    Day after tomorrow, 21 November, Wednesday

    Time Temperature Precipitation Wind Pressure Humidity
    00:00 +2°C° 0.5 mm 2 mps 725 mmHg 91%
    01:00 +2°C° 0.5 mm 2 mps 726 mmHg 93%
    02:00 +1°C° 0.1 mm 2 mps 726 mmHg 93%
    03:00 +1°C° 0.1 mm 2 mps 725 mmHg 94%
    04:00 +2°C° 0.1 mm 1 mps 725 mmHg 94%
    05:00 +1°C° 0 mm 2 mps 726 mmHg 94%
    06:00 +1°C° 0 mm 2 mps 726 mmHg 94%
    07:00 +1°C° 0 mm 2 mps 726 mmHg 94%
    08:00 +1°C° 0.1 mm 2 mps 727 mmHg 93%
    09:00 +2°C° 0.1 mm 2 mps 727 mmHg 91%
    10:00 +2°C° 0.1 mm 2 mps 727 mmHg 90%
    11:00 +3°C° 0 mm 2 mps 727 mmHg 89%
    12:00 +3°C° 0 mm 2 mps 727 mmHg 88%
    13:00 +2°C° 0 mm 3 mps 727 mmHg 87%
    14:00 +2°C° 0 mm 3 mps 727 mmHg 88%
    15:00 +1°C° 0 mm 3 mps 727 mmHg 90%
    16:00 0°C° 0 mm 3 mps 728 mmHg 92%
    17:00 +1°C° 0 mm 2 mps 728 mmHg 92%
    18:00 +1°C° 0 mm 2 mps 728 mmHg 91%
    19:00 +1°C° 0 mm 2 mps 728 mmHg 91%
    20:00 +1°C° 0 mm 2 mps 729 mmHg 91%
    21:00 +1°C° 0 mm 2 mps 729 mmHg 92%
    22:00 -1°C° 0 mm 2 mps 729 mmHg 92%
    23:00 -1°C° 0 mm 2 mps 729 mmHg 92%

    22 November, Thursday

    Time Temperature Precipitation Wind Pressure Humidity
    00:00 -1°C° 0 mm 2 mps 730 mmHg 92%
    01:00 -1°C° 0 mm 2 mps 730 mmHg 92%
    02:00 -1°C° 0 mm 2 mps 730 mmHg 92%
    03:00 -1°C° 0 mm 2 mps 730 mmHg 92%
    04:00 -1°C° 0 mm 2 mps 730 mmHg 92%
    05:00 -1°C° 0 mm 2 mps 730 mmHg 92%
    06:00 -1°C° 0 mm 2 mps 731 mmHg 92%
    07:00 -1°C° 0 mm 2 mps 731 mmHg 92%
    08:00 +1°C° 0 mm 2 mps 731 mmHg 90%
    09:00 +2°C° 0 mm 1 mps 731 mmHg 88%
    10:00 +3°C° 0 mm 1 mps 732 mmHg 86%
    11:00 +3°C° 0 mm 1 mps 732 mmHg 85%
    12:00 +4°C° 0 mm 1 mps 732 mmHg 84%
    13:00 +5°C° 0 mm 1 mps 732 mmHg 83%
    14:00 +4°C° 0 mm 1 mps 732 mmHg 85%
    15:00 +3°C° 0 mm 1 mps 732 mmHg 88%
    16:00 +3°C° 0 mm 1 mps 732 mmHg 91%
    17:00 +2°C° 0 mm 1 mps 732 mmHg 92%
    18:00 +2°C° 0 mm 1 mps 733 mmHg 93%
    19:00 +1°C° 0 mm 1 mps 733 mmHg 93%
    20:00 +1°C° 0 mm 1 mps 733 mmHg 93%
    21:00 +1°C° 0 mm 1 mps 733 mmHg 93%
    22:00 +1°C° 0 mm 1 mps 734 mmHg 93%
    23:00 +1°C° 0 mm 1 mps 734 mmHg 93%

    23 November, Friday

    Time Temperature Precipitation Wind Pressure Humidity
    00:00 +1°C° 0 mm 1 mps 734 mmHg 93%
    01:00 0°C° 0 mm 1 mps 734 mmHg 94%
    02:00 0°C° 0 mm 1 mps 734 mmHg 94%
    03:00 0°C° 0 mm 1 mps 734 mmHg 94%
    04:00 0°C° 0 mm 1 mps 734 mmHg 94%
    05:00 -1°C° 0 mm 0 mps 734 mmHg 93%
    06:00 -1°C° 0 mm 0 mps 734 mmHg 93%
    07:00 -1°C° 0 mm 0 mps 735 mmHg 93%
    08:00 +2°C° 0 mm 1 mps 735 mmHg 89%
    09:00 +4°C° 0 mm 1 mps 735 mmHg 84%
    10:00 +5°C° 0 mm 1 mps 735 mmHg 80%
    11:00 +6°C° 0 mm 1 mps 735 mmHg 79%
    12:00 +7°C° 0 mm 1 mps 735 mmHg 77%
    13:00 +8°C° 0 mm 1 mps 735 mmHg 76%
    14:00 +6°C° 0 mm 1 mps 735 mmHg 81%
    15:00 +5°C° 0 mm 1 mps 735 mmHg 86%
    16:00 +4°C° 0 mm 1 mps 734 mmHg 91%
    17:00 +4°C° 0 mm 1 mps 734 mmHg 92%
    18:00 +3°C° 0 mm 1 mps 734 mmHg 92%
    19:00 +3°C° 0 mm 1 mps 734 mmHg 93%
    20:00 +3°C° 0 mm 1 mps 734 mmHg 93%
    21:00 +3°C° 0 mm 1 mps 734 mmHg 93%
    22:00 +3°C° 0 mm 1 mps 734 mmHg 93%
    23:00 +3°C° 0 mm 1 mps 733 mmHg 93%

    24 November, Saturday

    Time Temperature Precipitation Wind Pressure Humidity
    00:00 +3°C° 0 mm 1 mps 733 mmHg 93%
    01:00 +3°C° 0 mm 1 mps 733 mmHg 93%
    02:00 +3°C° 0 mm 1 mps 733 mmHg 93%
    03:00 +3°C° 0 mm 1 mps 732 mmHg 93%
    04:00 +2°C° 0 mm 2 mps 732 mmHg 93%
    05:00 +2°C° 0 mm 2 mps 732 mmHg 93%
    06:00 +2°C° 0 mm 2 mps 732 mmHg 93%
    07:00 +2°C° 0 mm 2 mps 731 mmHg 93%
    08:00 +3°C° 0 mm 2 mps 731 mmHg 89%
    09:00 +4°C° 0 mm 2 mps 731 mmHg 85%
    10:00 +5°C° 0 mm 2 mps 731 mmHg 81%
    11:00 +6°C° 0 mm 2 mps 731 mmHg 79%
    12:00 +6°C° 0 mm 2 mps 730 mmHg 77%
    13:00 +7°C° 0 mm 2 mps 730 mmHg 75%
    14:00 +6°C° 0 mm 2 mps 730 mmHg 79%
    15:00 +5°C° 0 mm 2 mps 729 mmHg 83%
    16:00 +4°C° 0 mm 2 mps 729 mmHg 87%
    17:00 +4°C° 0 mm 2 mps 729 mmHg 87%
    18:00 +4°C° 0 mm 2 mps 729 mmHg 88%
    19:00 +4°C° 0 mm 2 mps 729 mmHg 88%
    20:00 +4°C° 0 mm 2 mps 728 mmHg 89%
    21:00 +4°C° 0 mm 2 mps 728 mmHg 89%
    22:00 +4°C° 0 mm 2 mps 728 mmHg 90%
    23:00 +5°C° 0 mm 1 mps 728 mmHg 90%
    Show more